FW6618 Weather Reports


Display with metric or nautical units.
time (UTC)temp
F
wind
direction
speed
MPH
gust
MPH
rain 1hr
in
rain 24hr
in
rain mn
in
humidity
%
barometer
mb
20260506035017 57 0 0.0 0.0 0.00 0.08 0.08 95 1010.3
20260506034533 57 0 0.0 0.0 0.00 0.08 0.08 95 1010.4
20260506034016 57 0 0.0 0.0 0.00 0.08 0.08 95 1010.4
20260506033518 57 0 0.0 0.0 0.01 0.08 0.08 95 1010.3
20260506033038 57 0 0.0 0.0 0.01 0.08 0.08 95 1010.1
20260506032516 57 0 0.0 0.0 0.01 0.08 0.08 94 1010.2
20260506032017 57 0 0.0 0.0 0.01 0.08 0.08 94 1010.1
20260506031546 57 0 0.0 0.0 0.01 0.08 0.08 94 1010.3
20260506031019 57 0 0.0 2.0 0.01 0.08 0.08 94 1010.2
20260506030521 57 0 0.0 2.0 0.01 0.08 0.08 94 1009.9
20260506030036 57 246 1.0 2.0 0.01 0.08 0.08 94 1009.7
20260506025521 57 55 1.0 2.0 0.01 0.08 0.08 94 1010.0
20260506025019 57 294 0.0 3.0 0.01 0.08 0.08 94 1010.1
20260506024543 57 25 1.0 3.0 0.01 0.08 0.08 94 1010.0
20260506024019 57 148 1.0 3.0 0.00 0.07 0.07 94 1010.4
20260506023520 57 0 0.0 0.0 0.00 0.07 0.07 94 1010.4
20260506023032 57 0 0.0 0.0 0.00 0.07 0.07 94 1010.0
20260506022518 57 0 0.0 0.0 0.00 0.07 0.07 94 1010.2
20260506022017 57 0 0.0 0.0 0.00 0.07 0.07 94 1010.0
20260506021532 57 0 0.0 0.0 0.00 0.07 0.07 94 1009.8
20260506021019 57 0 0.0 0.0 0.00 0.07 0.07 93 1010.3
20260506020519 57 0 0.0 0.0 0.00 0.07 0.07 93 1010.0
20260506020031 57 0 0.0 0.0 0.00 0.07 0.07 93 1010.0
20260506015519 57 0 0.0 0.0 0.00 0.07 0.07 93 1010.0
20260506015019 57 0 0.0 0.0 0.00 0.07 0.07 93 1010.0
20260506014535 57 0 0.0 0.0 0.00 0.07 0.07 93 1010.0
20260506014023 57 0 0.0 0.0 0.00 0.07 0.07 92 1009.9
20260506013517 57 0 0.0 0.0 0.00 0.07 0.07 92 1010.0
20260506013036 57 0 0.0 0.0 0.00 0.07 0.07 92 1009.7
20260506012518 57 0 0.0 0.0 0.00 0.07 0.07 92 1009.8
20260506012021 57 0 0.0 0.0 0.00 0.07 0.07 92 1009.8
20260506011537 57 0 0.0 0.0 0.00 0.07 0.07 92 1009.5
20260506011018 57 0 0.0 0.0 0.00 0.07 0.07 92 1009.7
20260506010519 57 0 0.0 0.0 0.00 0.07 0.07 92 1009.5
20260506010035 57 0 0.0 0.0 0.00 0.07 0.07 92 1009.6
20260506005521 57 0 0.0 0.0 0.00 0.07 0.07 92 1009.3
20260506005019 57 0 0.0 0.0 0.00 0.07 0.07 92 1009.3
20260506004537 58 0 0.0 0.0 0.00 0.07 0.07 92 1009.2
20260506004018 58 0 0.0 0.0 0.00 0.07 0.07 92 1009.2
20260506003519 58 0 0.0 0.0 0.00 0.07 0.07 91 1009.2
20260506003032 59 0 0.0 0.0 0.00 0.07 0.07 91 1009.1
20260506002519 59 0 0.0 0.0 0.00 0.07 0.07 91 1009.2
20260506002019 59 0 0.0 0.0 0.00 0.07 0.07 91 1009.1
20260506001540 60 0 0.0 0.0 0.00 0.07 0.07 90 1008.8
20260506001019 60 0 0.0 0.0 0.00 0.07 0.07 90 1008.4
20260506000518 60 0 0.0 2.0 0.00 0.07 0.07 89 1008.6
20260506000040 61 348 0.0 2.0 0.00 0.07 0.07 89 1008.7
20260505235521 61 350 0.0 2.0 0.00 0.07 0.07 88 1008.6
20260505235018 61 0 0.0 0.0 0.00 0.07 0.07 87 1008.5
20260505234535 62 0 0.0 0.0 0.00 0.07 0.07 86 1008.8
20260505234022 62 0 0.0 1.0 0.00 0.07 0.07 85 1008.9
20260505233516 63 33 0.0 1.0 0.00 0.07 0.07 84 1009.0
20260505233037 63 34 0.0 1.0 0.00 0.07 0.07 80 1009.0
20260505232519 64 33 0.0 2.0 0.00 0.07 0.07 80 1008.7
20260505232024 64 108 0.0 2.0 0.00 0.07 0.07 77 1008.8
20260505231538 64 104 1.0 2.0 0.00 0.07 0.07 75 1008.6
20260505231022 64 85 1.0 2.0 0.00 0.07 0.07 78 1008.5
20260505230518 64 89 1.0 2.0 0.00 0.07 0.07 78 1008.5
20260505230036 64 347 1.0 4.0 0.00 0.07 0.07 78 1008.6
20260505225516 65 257 0.0 4.0 0.00 0.07 0.07 76 1008.7
20260505225020 65 127 2.0 5.0 0.00 0.07 0.07 75 1009.0
20260505224537 65 145 2.0 5.0 0.01 0.07 0.07 74 1008.9
20260505224019 65 283 1.0 4.0 0.01 0.07 0.07 74 1008.9
20260505223524 66 169 1.0 4.0 0.02 0.07 0.07 72 1008.8
20260505223037 66 153 1.0 7.0 0.03 0.07 0.07 72 1008.8
20260505222519 65 104 3.0 7.0 0.03 0.07 0.07 72 1008.2
20260505222017 65 94 2.0 6.0 0.03 0.07 0.07 75 1008.3
20260505221537 65 79 2.0 6.0 0.03 0.07 0.07 77 1008.2
20260505221019 64 229 2.0 5.0 0.03 0.07 0.07 76 1008.3
20260505220517 64 155 1.0 8.0 0.03 0.07 0.07 78 1008.0
20260505220038 64 54 2.0 8.0 0.03 0.07 0.07 80 1007.7
20260505215518 64 340 1.0 8.0 0.03 0.07 0.07 82 1007.7
20260505215018 64 259 2.0 8.0 0.03 0.07 0.07 80 1007.9
20260505214600 65 37 1.0 6.0 0.02 0.06 0.06 79 1007.7
20260505214018 66 326 2.0 6.0 0.02 0.06 0.06 74 1007.8
20260505213518 67 74 2.0 4.0 0.00 0.04 0.04 69 1007.8
20260505213038 67 245 2.0 4.0 0.01 0.04 0.04 69 1007.4
20260505212521 67 319 0.0 5.0 0.01 0.04 0.04 72 1006.9
20260505212016 67 75 2.0 5.0 0.02 0.04 0.04 71 1006.6
20260505211535 67 82 2.0 5.0 0.02 0.04 0.04 73 1006.5
20260505211016 67 79 3.0 5.0 0.02 0.04 0.04 74 1006.4
20260505210516 66 102 2.0 9.0 0.02 0.04 0.04 75 1006.3
20260505210036 66 225 2.0 10.0 0.02 0.04 0.04 76 1006.1
20260505205517 66 271 4.0 11.0 0.02 0.04 0.04 77 1006.0
20260505205018 65 15 5.0 11.0 0.02 0.04 0.04 77 1006.3
20260505204535 64 321 3.0 8.0 0.02 0.04 0.04 80 1005.7
20260505204017 64 306 4.0 11.0 0.02 0.04 0.04 78 1006.0
20260505203522 65 276 4.0 11.0 0.02 0.04 0.04 75 1006.2
20260505203034 67 280 6.0 12.0 0.01 0.03 0.03 70 1006.0
20260505202517 70 319 5.0 12.0 0.00 0.02 0.02 64 1005.6
20260505202019 74 329 6.0 12.0 0.00 0.02 0.02 53 1006.1
20260505201531 76 319 2.0 12.0 0.00 0.02 0.02 47 1005.4
20260505201018 77 322 3.0 10.0 0.00 0.02 0.02 45 1004.9
20260505200515 77 285 4.0 13.0 0.00 0.02 0.02 44 1004.8
20260505200043 78 304 3.0 13.0 0.00 0.02 0.02 44 1005.0
20260505195520 78 202 3.0 15.0 0.00 0.02 0.02 42 1004.9
20260505195018 78 156 4.0 15.0 0.00 0.02 0.02 43 1004.9
20260505194532 79 177 4.0 15.0 0.00 0.02 0.02 40 1005.0
20260505194019 79 150 4.0 15.0 0.00 0.02 0.02 42 1005.0
20260505193519 79 223 3.0 17.0 0.00 0.02 0.02 41 1005.0
20260505193035 79 141 5.0 17.0 0.00 0.02 0.02 41 1005.2
20260505192519 79 207 4.0 14.0 0.00 0.02 0.02 42 1005.1
20260505192019 79 295 3.0 12.0 0.00 0.02 0.02 41 1005.1
20260505191537 79 173 3.0 12.0 0.00 0.02 0.02 42 1005.3
20260505191021 79 242 3.0 13.0 0.00 0.02 0.02 40 1005.2
20260505190518 79 352 4.0 13.0 0.00 0.02 0.02 41 1005.3
20260505190031 80 9 4.0 21.0 0.00 0.02 0.02 38 1005.3
20260505185519 79 245 5.0 21.0 0.00 0.02 0.02 39 1005.3
20260505185022 80 195 5.0 21.0 0.00 0.02 0.02 39 1005.4
20260505184537 81 153 5.0 12.0 0.00 0.02 0.02 39 1005.4
20260505184017 81 133 4.0 12.0 0.00 0.02 0.02 40 1005.5
20260505183516 80 217 5.0 12.0 0.00 0.02 0.02 40 1005.4
20260505183050 80 210 4.0 10.0 0.00 0.02 0.02 41 1005.5
20260505182517 80 285 4.0 11.0 0.00 0.02 0.02 40 1005.3
20260505182018 81 270 3.0 13.0 0.00 0.02 0.02 39 1005.4
20260505181535 80 60 6.0 13.0 0.00 0.02 0.02 44 1005.7
20260505181020 79 202 4.0 12.0 0.00 0.02 0.02 41 1005.5
20260505180518 79 130 5.0 14.0 0.00 0.02 0.02 40 1005.8
20260505180041 79 138 4.0 17.0 0.00 0.02 0.02 42 1005.6
20260505175516 78 330 3.0 17.0 0.00 0.02 0.02 41 1006.1
20260505175017 78 250 4.0 11.0 0.00 0.02 0.02 40 1006.3
20260505174545 79 160 4.0 12.0 0.00 0.02 0.02 41 1006.4
20260505174019 80 264 3.0 12.0 0.00 0.02 0.02 41 1006.3
20260505173522 80 134 3.0 16.0 0.00 0.02 0.02 41 1006.3
20260505173034 81 339 4.0 16.0 0.00 0.02 0.02 39 1006.4
20260505172516 80 250 4.0 9.0 0.00 0.02 0.02 39 1006.3
20260505172018 80 249 4.0 11.0 0.00 0.02 0.02 39 1006.5
20260505171538 80 318 4.0 14.0 0.00 0.02 0.02 42 1006.5
20260505171015 80 246 4.0 17.0 0.00 0.02 0.02 42 1006.6
20260505170517 80 221 3.0 17.0 0.00 0.02 0.02 42 1006.8
20260505170036 79 347 3.0 14.0 0.00 0.02 0.02 42 1006.9
20260505165517 79 165 4.0 12.0 0.00 0.02 0.02 42 1006.9
20260505165019 79 128 4.0 12.0 0.00 0.02 0.02 42 1007.0
20260505164535 79 234 4.0 10.0 0.00 0.02 0.02 43 1007.2
20260505164019 79 170 4.0 11.0 0.00 0.02 0.02 47 1007.1
20260505163520 78 304 3.0 18.0 0.00 0.02 0.02 45 1007.1
20260505163038 77 123 5.0 18.0 0.00 0.02 0.02 46 1007.4
20260505162518 77 39 6.0 11.0 0.00 0.02 0.02 46 1007.5
20260505162020 77 221 5.0 13.0 0.00 0.02 0.02 46 1007.5
20260505161537 76 254 3.0 13.0 0.00 0.02 0.02 48 1007.5
20260505161020 76 169 5.0 13.0 0.00 0.02 0.02 47 1007.5
20260505160522 76 201 3.0 12.0 0.00 0.02 0.02 48 1007.6
20260505153036 73 255 2.0 8.0 0.00 0.02 0.02 55 1008.2
20260505152520 72 158 4.0 14.0 0.00 0.02 0.02 55 1008.2
20260505152022 71 153 5.0 14.0 0.00 0.02 0.02 53 1008.3
20260505151538 71 247 3.0 9.0 0.00 0.02 0.02 54 1008.3
20260505151018 71 96 3.0 9.0 0.00 0.02 0.02 54 1008.5
20260505150525 71 220 3.0 9.0 0.00 0.02 0.02 54 1008.2
20260505140520 66 96 1.0 4.0 0.00 0.02 0.02 64 1009.2
20260505125022 58 101 0.0 2.0 0.00 0.02 0.02 85 1009.5
20260505124537 58 205 0.0 2.0 0.00 0.02 0.02 84 1009.5
20260505124021 58 244 1.0 2.0 0.00 0.02 0.02 83 1009.5
20260505123524 58 89 1.0 2.0 0.00 0.02 0.02 81 1009.7
20260505123037 58 169 0.0 3.0 0.00 0.02 0.02 81 1009.5
20260505122524 57 228 1.0 3.0 0.00 0.02 0.02 82 1009.6
20260505122019 57 153 2.0 4.0 0.00 0.02 0.02 88 1009.6
20260505121541 56 107 2.0 4.0 0.00 0.02 0.02 87 1009.5
20260505121019 55 37 1.0 4.0 0.00 0.02 0.02 90 1009.5
20260505120522 55 199 0.0 2.0 0.00 0.02 0.02 94 1009.7
20260505120046 54 345 0.0 1.0 0.00 0.02 0.02 94 1009.5
20260505115523 54 0 0.0 1.0 0.02 0.02 0.02 94 1009.4
20260505115025 53 0 0.0 1.0 0.02 0.02 0.02 94 1009.3
20260505114544 53 343 0.0 1.0 0.02 0.02 0.02 93 1009.4
20260505114021 53 330 1.0 1.0 0.02 0.02 0.02 93 1009.3
20260505113519 52 330 0.0 1.0 0.02 0.02 0.02 92 1009.4
20260505113035 52 331 0.0 2.0 0.02 0.02 0.02 92 1009.5
20260505112518 52 329 0.0 2.0 0.02 0.02 0.02 91 1009.7
20260505112019 52 327 1.0 2.0 0.02 0.02 0.02 90 1009.7
20260505111539 53 3 0.0 2.0 0.02 0.02 0.02 88 1009.8
20260505111022 53 41 0.0 4.0 0.02 0.02 0.02 86 1009.9
20260505110518 54 37 1.0 4.0 0.02 0.02 0.02 84 1010.3
20260505102022 53 49 2.0 3.0 0.00 0.00 0.00 77 1009.2
20260505101544 53 302 0.0 2.0 0.00 0.00 0.00 76 1009.3
20260505101018 53 225 0.0 3.0 0.00 0.00 0.00 76 1009.2
20260505100520 53 140 2.0 3.0 0.00 0.00 0.00 75 1009.0
20260505100038 54 77 2.0 3.0 0.00 0.00 0.00 74 1008.9
20260505095520 54 163 0.0 4.0 0.00 0.00 0.00 74 1008.9
20260505095020 55 188 2.0 6.0 0.00 0.00 0.00 73 1008.9
20260505094540 55 300 1.0 6.0 0.00 0.00 0.00 71 1008.9
20260505094020 54 112 1.0 3.0 0.00 0.00 0.00 73 1008.8
20260505093519 55 283 1.0 3.0 0.00 0.00 0.00 71 1008.9
20260505093037 55 233 0.0 8.0 0.00 0.00 0.00 72 1008.7
20260505092522 55 321 1.0 8.0 0.00 0.00 0.00 71 1008.8
20260505092020 55 290 3.0 8.0 0.00 0.00 0.00 70 1008.8
20260505091536 54 0 0.0 3.0 0.00 0.00 0.00 73 1008.9
20260505091018 54 158 1.0 4.0 0.00 0.00 0.00 73 1008.9
20260505090520 54 92 2.0 4.0 0.00 0.00 0.00 71 1008.9
20260505090034 55 247 1.0 3.0 0.00 0.00 0.00 72 1008.9
20260505085524 54 76 1.0 3.0 0.00 0.00 0.00 71 1009.0
20260505085019 55 201 1.0 3.0 0.00 0.00 0.00 71 1009.1
20260505084541 55 243 1.0 2.0 0.00 0.00 0.00 70 1009.1
20260505084019 55 51 0.0 2.0 0.00 0.00 0.00 70 1009.0
20260505083520 55 25 1.0 2.0 0.00 0.00 0.00 70 1009.2
20260505083037 55 76 1.0 2.0 0.00 0.00 0.00 71 1009.0
20260505082521 55 23 1.0 3.0 0.00 0.00 0.00 70 1009.1
20260505082019 56 39 0.0 3.0 0.00 0.00 0.00 67 1009.1
20260505081537 55 39 1.0 3.0 0.00 0.00 0.00 68 1009.1
20260505081024 55 32 1.0 2.0 0.00 0.00 0.00 70 1009.1
20260505080517 55 340 1.0 2.0 0.00 0.00 0.00 67 1009.2
20260505080039 56 53 1.0 2.0 0.00 0.00 0.00 68 1009.1
20260505075520 56 158 1.0 2.0 0.00 0.00 0.00 67 1009.2
20260505075022 56 81 0.0 3.0 0.00 0.00 0.00 68 1009.0
20260505074539 55 141 1.0 3.0 0.00 0.00 0.00 68 1009.1
20260505074020 55 35 2.0 3.0 0.00 0.00 0.00 67 1009.0
20260505073523 55 49 1.0 4.0 0.00 0.00 0.00 70 1009.0
20260505073039 55 4 1.0 4.0 0.00 0.00 0.00 68 1009.1
20260505072519 56 345 0.0 5.0 0.00 0.00 0.00 66 1009.2
20260505072020 56 352 2.0 5.0 0.00 0.00 0.00 64 1009.1
20260505071549 56 55 1.0 2.0 0.00 0.00 0.00 65 1009.0
20260505071021 55 244 0.0 2.0 0.00 0.00 0.00 70 1009.1
20260505070524 55 51 1.0 2.0 0.00 0.00 0.00 69 1009.1
20260505070033 55 39 0.0 2.0 0.00 0.00 0.00 69 1009.1
20260505065520 56 0 0.0 2.0 0.00 0.00 0.00 69 1009.2
20260505065018 56 218 0.0 3.0 0.00 0.00 0.00 67 1009.3
20260505064538 57 217 1.0 4.0 0.00 0.00 0.00 65 1009.2
20260505064018 57 317 1.0 4.0 0.00 0.00 0.00 63 1009.2
20260505063519 57 37 2.0 4.0 0.00 0.00 0.00 64 1009.2
20260505063032 56 0 0.0 3.0 0.00 0.00 0.00 66 1009.1
20260505062518 57 330 0.0 3.0 0.00 0.00 0.00 65 1009.3
20260505062019 57 330 1.0 3.0 0.00 0.00 0.00 64 1009.2
20260505061535 57 2 1.0 5.0 0.00 0.00 0.00 63 1009.1
20260505061023 58 18 1.0 5.0 0.00 0.00 0.00 65 1009.1
20260505060520 57 288 1.0 5.0 0.00 0.00 0.00 66 1009.2
20260505060045 57 319 1.0 2.0 0.00 0.00 0.00 66 1009.2
20260505055520 57 39 1.0 3.0 0.00 0.00 0.00 63 1009.2
20260505055020 57 235 1.0 4.0 0.00 0.00 0.00 65 1009.2
20260505054538 56 274 1.0 4.0 0.00 0.00 0.00 65 1009.3
20260505054018 56 328 1.0 4.0 0.00 0.00 0.00 65 1009.3
20260505053517 56 107 0.0 6.0 0.00 0.00 0.00 67 1009.2
20260505053035 55 107 2.0 6.0 0.00 0.00 0.00 69 1009.2
20260505052521 54 355 1.0 3.0 0.00 0.00 0.00 71 1009.1
20260505052021 54 23 1.0 3.0 0.00 0.00 0.00 70 1009.2
20260505051539 54 37 1.0 2.0 0.00 0.00 0.00 69 1009.3
20260505051022 54 54 1.0 3.0 0.00 0.00 0.00 70 1009.1
20260505050520 54 105 1.0 3.0 0.00 0.00 0.00 69 1009.3
20260505041539 53 359 0.0 4.0 0.00 0.00 0.00 71 1009.3
20260505041016 53 3 1.0 4.0 0.00 0.00 0.00 72 1009.4
20260505040520 53 15 1.0 2.0 0.00 0.00 0.00 72 1009.3
20260505040038 53 340 1.0 2.0 0.00 0.00 0.00 72 1009.3
20260505035518 53 350 0.0 2.0 0.00 0.00 0.00 72 1009.3